Ely, MN

3:07 AM CST on February 07, 2016 (GMT -0600)
Ely Municipal

Weather History for KELO - October, 2011

Change the Weather History Date:

Saturday, October 1, 2011

  Actual Average Record
Temperature  
Mean Temperature 42 °F -  
Max Temperature 59 °F 55 °F 82 °F (2005)
Min Temperature 24 °F 35 °F 24 °F (2011)
Degree Days  
Heating Degree Days 24    
Moisture  
Dew Point 30 °F    
Average Humidity 69    
Maximum Humidity 100    
Minimum Humidity 34    
Precipitation  
Precipitation 0.00 in - - ()
Sea Level Pressure  
Sea Level Pressure 30.26 in    
Wind  
Wind Speed 3 mph (South)    
Max Wind Speed 14 mph    
Max Gust Speed 18 mph    
Visibility 10 miles    
Events      
Averages and records for this station are not official NWS values.
T = Trace of Precipitation, MM = Missing Value Source: NWS Daily Summary

Daily Weather History Graph

Daily Weather History Graph

Search for Another Location

Airport or City:

Trip Planner

Search our weather history database for the weather conditions in past years. The results will help you decide how hot, cold, wet, or windy it might be!

Date:

Astronomy

Oct. 01, 2011 Rise Set
Actual Time 7:06 AM CDT 6:47 PM CDT
Civil Twilight 6:35 AM CDT 7:17 PM CDT
Nautical Twilight 5:59 AM CDT 7:53 PM CDT
Astronomical Twilight 5:22 AM CDT 8:30 PM CDT
Moon 12:38 PM CDT (10/1) 9:18 PM CDT (10/1)
Length of Visible Light 12h 42m
Length of Day
11h 41m
Waxing Crescent, 24% of the Moon is Illuminated
Oct 1
Waxing Crescent
Oct 3
First Quarter
Oct 11
Full
Oct 19
Last Quarter
Oct 26
New

Hourly Weather History & Observations

Time (CDT) Temp. Windchill Dew Point Humidity Pressure Visibility Wind Dir Wind Speed Gust Speed Precip Events Conditions
12:13 AM 26.6 °F - 26.6 °F 100% 30.28 in 10.0 mi Calm Calm - N/A   Clear
12:33 AM 28.4 °F - 26.6 °F 93% 30.28 in 10.0 mi Calm Calm - N/A   Clear
12:52 AM 26.6 °F - 26.6 °F 100% 30.28 in 10.0 mi Calm Calm - N/A   Clear
1:13 AM 26.6 °F - 26.6 °F 100% 30.28 in 10.0 mi Calm Calm - N/A   Clear
1:33 AM 26.6 °F - 24.8 °F 93% 30.29 in 10.0 mi Calm Calm - N/A   Clear
1:53 AM 26.6 °F - 26.6 °F 100% 30.29 in 10.0 mi Calm Calm - N/A   Clear
2:13 AM 26.6 °F - 26.6 °F 100% 30.29 in 10.0 mi Calm Calm - N/A   Clear
2:33 AM 26.6 °F - 24.8 °F 93% 30.29 in 10.0 mi Calm Calm - N/A   Clear
2:52 AM 26.6 °F - 24.8 °F 93% 30.29 in 10.0 mi Calm Calm - N/A   Clear
3:13 AM 26.6 °F - 24.8 °F 93% 30.29 in 10.0 mi Calm Calm - N/A   Clear
3:33 AM 26.6 °F - 24.8 °F 93% 30.30 in 10.0 mi Calm Calm - N/A   Clear
3:52 AM 26.6 °F - 24.8 °F 93% 30.29 in 10.0 mi Calm Calm - N/A   Clear
4:12 AM 26.6 °F - 24.8 °F 93% 30.29 in 10.0 mi Calm Calm - N/A   Clear
4:33 AM 26.6 °F - 24.8 °F 93% 30.29 in 10.0 mi Calm Calm - N/A   Clear
4:52 AM 26.6 °F - 24.8 °F 93% 30.29 in 10.0 mi Calm Calm - N/A   Clear
5:12 AM 26.6 °F - 26.6 °F 100% 30.29 in 10.0 mi Calm Calm - N/A   Clear
5:33 AM 24.8 °F - 23.0 °F 93% 30.29 in 10.0 mi Calm Calm - N/A   Clear
5:52 AM 24.8 °F - 23.0 °F 93% 30.29 in 10.0 mi Calm Calm - N/A   Clear
6:12 AM 24.8 °F - 23.0 °F 93% 30.30 in 10.0 mi Calm Calm - N/A   Clear
6:33 AM 24.8 °F - 23.0 °F 93% 30.30 in 10.0 mi Calm Calm - N/A   Clear
6:52 AM 24.8 °F - 21.2 °F 86% 30.30 in 10.0 mi Calm Calm - N/A   Clear
7:12 AM 24.8 °F - 23.0 °F 93% 30.30 in 10.0 mi Calm Calm - N/A   Clear
7:33 AM 24.8 °F - 21.2 °F 86% 30.31 in 10.0 mi Calm Calm - N/A   Clear
7:52 AM 28.4 °F - 26.6 °F 93% 30.31 in 10.0 mi Calm Calm - N/A   Clear
8:13 AM 33.8 °F 29.6 °F 30.2 °F 87% 30.31 in 10.0 mi SSE 4.6 mph - N/A   Clear
8:32 AM 35.6 °F 30.7 °F 32.0 °F 87% 30.31 in 10.0 mi SSE 5.8 mph - N/A   Clear
8:53 AM 37.4 °F 32.1 °F 33.8 °F 87% 30.31 in 10.0 mi South 6.9 mph - N/A   Clear
9:13 AM 41.0 °F 35.8 °F 33.8 °F 76% 30.31 in 10.0 mi South 8.1 mph - N/A   Clear
9:32 AM 42.8 °F 38.0 °F 33.8 °F 70% 30.32 in 10.0 mi South 8.1 mph - N/A   Clear
9:53 AM 44.6 °F 38.8 °F 33.8 °F 66% 30.31 in 10.0 mi South 11.5 mph - N/A   Clear
10:13 AM 44.6 °F 39.7 °F 33.8 °F 66% 30.31 in 10.0 mi SSW 9.2 mph 18.4 mph N/A   Clear
10:32 AM 46.4 °F 41.5 °F 33.8 °F 62% 30.30 in 10.0 mi South 10.4 mph 18.4 mph N/A   Clear
10:53 AM 46.4 °F 41.5 °F 33.8 °F 62% 30.30 in 10.0 mi South 10.4 mph 16.1 mph N/A   Clear
11:13 AM 48.2 °F - 33.8 °F 58% 30.30 in 10.0 mi South 13.8 mph - N/A   Clear
11:32 AM 50.0 °F - 33.8 °F 54% 30.29 in 10.0 mi South 10.4 mph 17.3 mph N/A   Clear
11:53 AM 50.0 °F - 33.8 °F 54% 30.28 in 10.0 mi SSW 10.4 mph 16.1 mph N/A   Clear
12:13 PM 51.8 °F - 33.8 °F 50% 30.28 in 10.0 mi South 12.7 mph 17.3 mph N/A   Clear
12:33 PM 51.8 °F - 33.8 °F 50% 30.27 in 10.0 mi SSE 10.4 mph - N/A   Clear
12:53 PM 53.6 °F - 35.6 °F 51% 30.26 in 10.0 mi South 8.1 mph - N/A   Clear
1:13 PM 53.6 °F - 33.8 °F 47% 30.25 in 10.0 mi South 12.7 mph 17.3 mph N/A   Clear
1:32 PM 55.4 °F - 33.8 °F 44% 30.25 in 10.0 mi South 6.9 mph 11.5 mph N/A   Clear
1:53 PM 55.4 °F - 33.8 °F 44% 30.24 in 10.0 mi South 8.1 mph 16.1 mph N/A   Clear
2:13 PM 57.2 °F - 33.8 °F 41% 30.23 in 10.0 mi SSW 9.2 mph 16.1 mph N/A   Clear
2:32 PM 57.2 °F - 33.8 °F 41% 30.22 in 10.0 mi SSW 8.1 mph - N/A   Clear
2:53 PM 57.2 °F - 33.8 °F 41% 30.21 in 10.0 mi South 11.5 mph - N/A   Clear
3:12 PM 59.0 °F - 32.0 °F 36% 30.20 in 10.0 mi South 8.1 mph - N/A   Clear
3:33 PM 59.0 °F - 30.2 °F 34% 30.19 in 10.0 mi SSW 9.2 mph 17.3 mph N/A   Clear
3:53 PM 59.0 °F - 30.2 °F 34% 30.19 in 10.0 mi SSW 6.9 mph - N/A   Clear
4:12 PM 59.0 °F - 30.2 °F 34% 30.18 in 10.0 mi SSW 10.4 mph 18.4 mph N/A   Clear
4:33 PM 59.0 °F - 30.2 °F 34% 30.17 in 10.0 mi South 10.4 mph 17.3 mph N/A   Clear
4:53 PM 57.2 °F - 32.0 °F 38% 30.17 in 10.0 mi South 11.5 mph - N/A   Clear
5:12 PM 57.2 °F - 33.8 °F 41% 30.15 in 10.0 mi South 11.5 mph - N/A   Clear
5:33 PM 57.2 °F - 33.8 °F 41% 30.16 in 10.0 mi South 10.4 mph - N/A   Clear
5:53 PM 55.4 °F - 33.8 °F 44% 30.15 in 10.0 mi South 10.4 mph - N/A   Clear
6:12 PM 55.4 °F - 33.8 °F 44% 30.15 in 10.0 mi South 9.2 mph - N/A   Clear
6:33 PM 53.6 °F - 33.8 °F 47% 30.15 in 10.0 mi South 8.1 mph - N/A   Clear
6:53 PM 51.8 °F - 33.8 °F 50% 30.15 in 10.0 mi South 9.2 mph - N/A   Clear
7:13 PM 51.8 °F - 33.8 °F 50% 30.15 in 10.0 mi South 6.9 mph - N/A   Clear
7:33 PM 50.0 °F - 33.8 °F 54% 30.15 in 10.0 mi South 5.8 mph - N/A   Clear
7:53 PM 48.2 °F - 33.8 °F 58% 30.15 in 10.0 mi South 6.9 mph - N/A   Clear
8:12 PM 48.2 °F - 33.8 °F 58% 30.15 in 10.0 mi South 6.9 mph - N/A   Clear
8:33 PM 48.2 °F - 33.8 °F 58% 30.14 in 10.0 mi South 8.1 mph - N/A   Clear
8:53 PM 48.2 °F - 33.8 °F 58% 30.14 in 10.0 mi South 5.8 mph - N/A   Clear
9:12 PM 46.4 °F 43.5 °F 33.8 °F 62% 30.15 in 10.0 mi South 5.8 mph - N/A   Clear
9:33 PM 46.4 °F 44.3 °F 33.8 °F 62% 30.14 in 10.0 mi South 4.6 mph - N/A   Clear
9:52 PM 46.4 °F 42.9 °F 33.8 °F 62% 30.14 in 10.0 mi South 6.9 mph - N/A   Clear
10:12 PM 46.4 °F 42.9 °F 33.8 °F 62% 30.14 in 10.0 mi South 6.9 mph - N/A   Clear
10:33 PM 46.4 °F 42.9 °F 33.8 °F 62% 30.15 in 10.0 mi SSW 6.9 mph - N/A   Clear
10:53 PM 46.4 °F 43.5 °F 33.8 °F 62% 30.15 in 10.0 mi SSW 5.8 mph - N/A   Clear
11:12 PM 46.4 °F 43.5 °F 33.8 °F 62% 30.17 in 10.0 mi SSW 5.8 mph - N/A   Clear
11:33 PM 46.4 °F 44.3 °F 33.8 °F 62% 30.17 in 10.0 mi South 4.6 mph - N/A   Clear
11:53 PM 46.4 °F 44.3 °F 33.8 °F 62% 30.17 in 10.0 mi SSW 4.6 mph - N/A   Clear